Volver al catálogo

THOR ABLESTAR DEB

ActivoPO
NORAD 1521·DEBRIS·🇺🇸 United States

Lanzado Aug 13, 1965 desde Vandenberg Space Force Base

Loading…

Próximos Pases (próximas 24 horas)

TLE

ActualizadoSource: Space-Track

Época: Sep 14, 2026, 08:15 UTC

1 01521U 65065K   26257.34382414  .00000027  00000-0  36358-4 0  9990
2 01521  90.0283 210.5180 0070078  14.3612 149.7503 13.33287770971286

Sigue THOR ABLESTAR DEB en tiempo real con AllMySat

Download on the App Store